{"data":{"norad_id":65388,"intl_designator":"2025-191K","name":"STARLINK-34957","alt_names":[],"object_type":"PAYLOAD","status":"ACTIVE","operator":null,"country":"US","launch_date":"2025-08-30","launch_site_code":"AFWTR","launch_vehicle":null,"mission":null,"orbit_class":"UNKNOWN","rcs_meters":null,"size_class":null,"mass_kg":null,"dimensions":null,"purposes":["comms"],"wikipedia_slug":null,"has_3d_model":false,"image_url":null,"decayed_at":null,"tle_current":{"epoch":"2026-09-20T14:02:48.519456Z","epoch_age_seconds":107526,"freshness":"FRESH","line1":"1 65388U 25191K   26263.58528379  .00008219  00000+0  25661-3 0  9996","line2":"2 65388  97.2846 129.6456 0001433  93.4864 266.6543 15.33446367 59655","mean_motion":15.33446367,"eccentricity":0.0001433,"inclination_deg":97.2846,"raan_deg":129.6456,"arg_perigee_deg":93.4864,"mean_anomaly_deg":266.6543,"bstar":0.00025661,"rev_number":5965,"period_min":93.906120943583,"perigee_km":464.55840846475,"apogee_km":466.51980603709,"semimajor_km":6843.6761072509,"source":"CELESTRAK","updated_at":"2026-09-21T09:00:35.598832Z"}}}